Regional Weather Roundup
Issued by NWS

Home | Current Version | Previous Version | Text Only | Print | Product List | Glossary On
Versions: 1 2 3 4 5 6 7 8 9 10 11 12 13 14 15 16 17 18 19 20 21 22 23 24 25 26 27 28 29 30 31 32 33 34 35 36 37 38 39 40 41 42 43 44 45 46 47 48 49 50
000
ASUS43 KOAX 270710
RWRNE

WEATHER ROUNDUP FOR NEBRASKA
NATIONAL WEATHER SERVICE OMAHA NE
200 AM CDT FRI MAR 27 2015

NOTES: SATELLITE DATA IS BEING USED TO AUGMENT CLOUD COVER ABOVE
       12000 FEET.
       "FAIR" INDICATES FEW OR NO CLOUDS BELOW 12,000 FEET WITH NO
       SIGNIFICANT WEATHER AND/OR OBSTRUCTIONS TO VISIBILITY.

  * THESE STATIONS DO NOT REPORT WEATHER SUCH AS RAIN...SNOW OR FOG.

NEZ001>004-019>022-054>056-270800-
NEBRASKA PANHANDLE

CITY           SKY/WX    TMP DP  RH WIND       PRES   REMARKS
SCOTTSBLUFF    CLOUDY    40  32  73 E7        30.15F
ALLIANCE       CLOUDY    37  30  75 SE3       30.17S
CHADRON        CLOUDY    38  33  82 S6        30.17S WCI  33
KIMBALL        CLOUDY    39  32  74 CALM      30.14S
SIDNEY         CLOUDY    37  29  72 SE5       30.17S WCI  33
$$

NEZ057>060-069>072-079>082-270800-
SOUTHWEST NEBRASKA

CITY           SKY/WX    TMP DP  RH WIND       PRES   REMARKS
NORTH PLATTE   CLOUDY    32  27  81 E10       30.21R WCI  24
IMPERIAL         N/A     37  27  67 E6        30.20S WCI  32
LEXINGTON      CLOUDY    34  27  76 NE8       30.22S WCI  27
MCCOOK         CLOUDY    35  28  75 E7        30.23S WCI  29
OGALLALA       CLOUDY    35  29  80 E6        30.22R WCI  30
$$

NEZ005>010-023>029-035>040-094-270800-
NORTH CENTRAL NEBRASKA

CITY           SKY/WX    TMP DP  RH WIND       PRES   REMARKS
VALENTINE      CLOUDY    30  25  81 CALM      30.22S
AINSWORTH      CLOUDY    32  28  84 CALM      30.22S
BROKEN BOW     CLOUDY    33  26  75 N3        30.22S
O`NEILL        PTCLDY    29  25  83 NE7       30.24S WCI  22
ORD            PTCLDY    24  21  88 NW5       30.22S WCI  18
THEDFORD       CLOUDY    33  28  83 CALM      30.22S
$$

NEZ041-046>049-061>064-073>077-083>087-270800-
SOUTH CENTRAL NEBRASKA

CITY           SKY/WX    TMP DP  RH WIND       PRES   REMARKS
GRAND ISLAND   CLEAR     27  22  81 N7        30.23F WCI  19
AURORA         CLEAR     28  27  93 N7        30.22S WCI  21
HASTINGS       CLEAR     27  24  89 N7        30.22S WCI  19
HEBRON         PTCLDY    31  28  88 N3        30.23S
HOLDREGE       CLOUDY    33  28  80 N14       30.22R WCI  23
KEARNEY *      CLOUDY    32  25  74 NE15      30.23S WCI  22
YORK           CLEAR     28  28 100 N6        30.22S WCI  22
$$

NEZ011>018-030>034-042>045-270800-
NORTHEAST NEBRASKA

CITY           SKY/WX    TMP DP  RH WIND       PRES   REMARKS
NORFOLK        PTCLDY    28  21  75 NE7       30.24R WCI  21
ALBION         PTCLDY    30  26  83 N3        30.23R
BLAIR          MOCLDY    31  23  71 N14G20    30.22R WCI  21
COLUMBUS *     CLEAR     28  21  74 N8        30.25R WCI  20
FREMONT        FAIR      30  24  78 N7        30.25R WCI  23
TEKAMAH        MOCLDY    29  20  69 N10       30.25S WCI  20
WAYNE          CLEAR     22  18  85 N5        30.25F WCI  16
$$

NEZ050>053-065>068-078-088>093-270800-
SOUTHEAST NEBRASKA

CITY           SKY/WX    TMP DP  RH WIND       PRES   REMARKS
LINCOLN        CLEAR     31  29  92 NW8       30.23S WCI  23
OMAHA EPPLEY   MOCLDY    31  25  78 N10       30.23R WCI  22
BEATRICE       CLEAR     28  28  96 N6        30.21S WCI  22
FALLS CITY     CLEAR     32  30  92 NW5       30.19S WCI  27
NEBRASKA CITY  CLEAR     31  31 100 N7        30.20R FOG     WCI  24
PLATTSMOUTH    PTCLDY    31  29  91 N10       30.21R WCI  22
$$

NEZ044-045-051>053-067-270800-
OMAHA AREA

CITY           SKY/WX    TMP DP  RH WIND       PRES   REMARKS
OMAHA EPPLEY   MOCLDY    31  25  78 N10       30.23R WCI  22
BLAIR          MOCLDY    31  23  71 N14G20    30.22R WCI  21
FREMONT        FAIR      30  24  78 N7        30.25R WCI  23
MILLARD        CLEAR     33  27  79 N3        30.23R
OFFUTT AFB     PTCLDY    31  26  81 N9        30.22R WCI  23
PLATTSMOUTH    PTCLDY    31  29  91 N10       30.21R WCI  22
WAHOO          FAIR      31  26  83 N10       30.23R WCI  22
$$


USA.gov is the U.S. government's official web portal to all federal, state and local government web resources and services.